STARLINK-32357 (61009 NORAD) Tracking and Keplerian Element Data

This shows tracking and keplerian element data for the satellite.

Feedback or suggestion? Click here.




ElementValue
Catalog61009
NameSTARLINK-32357
Epoch Orbit699
Epoch Day286.53399887
Epoch Year2024
RAAN291.9561
Inclination53.1582
Eccentricity0.0001286
Argument of Perigee91.5186
Mean Anonmoly268.5978
Mean Motion15.67611098
Decay Rate0.00015377
L11 61009U 24158V 24286.53399887 .00015377 00000+0 14324-3 0 9999
L22 61009 53.1582 291.9561 0001286 91.5186 268.5978 15.67611098 6995



Live tracking and technical data element details for STARLINK-32357 (NORAD 61009). STARLINK-32357 can be tracked NOW for your location showing map with azimuth and elevation plus other details from your city location.







IsCatalogInMostPopularTable: catalog: 61009, numindb: 8
Update: records affected: 1



GetName: 61009 STARLINK-32357

Hit Count: updated at: Fri, 06 Dec 2024 11:29:49 GMT